This is the latest recevied weather packets stored in our database for station/object TG9SRP-22. If no packets are shown the sender has not sent any weather packets the latest 10 day(s).
| Time | Temp. | Humidity | Pressure | Rain* | Wind** | Luminosity | Snow |
|---|---|---|---|---|---|---|---|
| 1777682076 | 16.67° C | 10% | - | 0 mm | - | - | - |
| 1777681475 | 17.22° C | 10% | - | 0 mm | - | - | - |
| 1777680875 | 17.78° C | 10% | - | 0 mm | - | - | - |
| 1777680274 | 17.78° C | 10% | - | 0 mm | - | - | - |
| 1777679673 | 17.78° C | 90% | 1011 hPa | 0 mm | - | - | - |
| 1777679073 | 17.78° C | 81% | 1011 hPa | 0 mm | - | - | - |
| 1777678472 | 18.89° C | 79% | 1011 hPa | 0 mm | - | - | - |
| 1777677872 | 20° C | 76% | 1010 hPa | 0 mm | - | - | - |
| 1777677271 | 21.11° C | 72% | 1010 hPa | 0 mm | - | - | - |
| 1777676670 | 21.11° C | 72% | 1010 hPa | 0 mm | - | - | - |
| 1777676070 | 22.22° C | 69% | 1010 hPa | 0 mm | - | - | - |
| 1777675469 | 20.56° C | 71% | 1010 hPa | 0 mm | - | - | - |
| 1777674868 | 21.11° C | 73% | 1010 hPa | 0 mm | - | - | - |
| 1777674269 | 21.67° C | 75% | 1009 hPa | 0 mm | - | - | - |
| 1777673667 | 22.22° C | 80% | 1009 hPa | 0 mm | - | - | - |
| 1777673067 | 21.11° C | 86% | 1009 hPa | 0 mm | - | - | - |
| 1777672466 | 21.11° C | 75% | 1009 hPa | 0 mm | - | - | - |
| 1777671865 | 21.11° C | 75% | 1009 hPa | 0 mm | - | - | - |
| 1777671265 | 22.22° C | 71% | 1009 hPa | 0 mm | - | - | - |
| 1777670664 | 23.33° C | 67% | 1009 hPa | 0 mm | - | - | - |
| 1777670063 | 24.44° C | 64% | 1009 hPa | 0 mm | - | - | - |
| 1777669463 | 21.67° C | 10% | - | 0 mm | - | - | - |
| 1777668862 | 21.67° C | 10% | - | 0 mm | - | - | - |
| 1777668262 | 21.67° C | 10% | - | 0 mm | - | - | - |
| 1777667661 | 21.67° C | 10% | - | 0 mm | - | - | - |
* Rain latest hour (hover to see other rain measurements)
** Current wind speed in m/s (hover to see current wind gust speed)